Time,TemperatureF,DewpointF,PressureIn,WindDirection,WindDirectionDegrees,WindSpeedMPH,WindSpeedGustMPH,Humidity,HourlyPrecipIn,Conditions,Clouds,dailyrainin,SoftwareType,DateUTC
2013-03-21 17:57:00,33.0,6.3,28.98,North,360,5.0,6.0,32,0.00,,,0.00,Weather View 32 v70,2013-03-21 21:57:00,
2013-03-21 17:58:00,33.0,6.3,28.98,NW,315,4.0,9.0,32,0.00,,,0.00,Weather View 32 v70,2013-03-21 21:58:00,
2013-03-21 18:03:00,33.0,7.0,28.98,NNW,337,7.0,12.0,33,0.00,,,0.00,Weather View 32 v70,2013-03-21 22:03:00,
2013-03-21 18:08:00,33.0,6.3,28.98,North,360,7.0,15.0,32,0.00,,,0.00,Weather View 32 v70,2013-03-21 22:08:00,
2013-03-21 18:13:00,33.0,6.3,28.98,WNW,292,5.0,15.0,32,0.00,,,0.00,Weather View 32 v70,2013-03-21 22:13:00,
2013-03-21 18:18:00,33.0,6.3,28.98,NW,315,9.0,15.0,32,0.00,,,0.00,Weather View 32 v70,2013-03-21 22:18:00,
2013-03-21 18:23:00,33.0,6.3,28.98,NNW,337,5.0,15.0,32,0.00,,,0.00,Weather View 32 v70,2013-03-21 22:23:00,
2013-03-21 18:28:00,33.0,7.0,28.99,NW,315,20.0,20.0,33,0.00,,,0.00,Weather View 32 v70,2013-03-21 22:28:00,
2013-03-21 18:33:00,32.0,6.8,28.98,NW,315,0.0,20.0,34,0.00,,,0.00,Weather View 32 v70,2013-03-21 22:33:00,
2013-03-21 18:40:00,32.0,6.1,28.99,NNW,337,3.0,20.0,33,0.00,,,0.00,Weather View 32 v70,2013-03-21 22:40:00,
2013-03-21 18:45:00,32.0,6.1,28.99,North,360,1.0,20.0,33,0.00,,,0.00,Weather View 32 v70,2013-03-21 22:45:00,
2013-03-21 18:50:00,32.0,6.1,28.99,NW,315,7.0,20.0,33,0.00,,,0.00,Weather View 32 v70,2013-03-21 22:50:00,
2013-03-21 18:55:00,32.0,5.4,29.00,WSW,247,0.0,20.0,32,0.00,,,0.00,Weather View 32 v70,2013-03-21 22:55:00,
2013-03-21 19:00:00,31.0,5.2,28.99,SE,135,0.0,20.0,33,0.00,,,0.00,Weather View 32 v70,2013-03-21 23:00:00,
2013-03-21 19:05:00,31.0,5.2,29.00,NW,315,2.0,20.0,33,0.00,,,0.00,Weather View 32 v70,2013-03-21 23:05:00,
2013-03-21 19:10:00,31.0,5.9,29.00,NNW,337,4.0,20.0,34,0.00,,,0.00,Weather View 32 v70,2013-03-21 23:10:00,
2013-03-21 19:15:00,31.0,6.5,29.00,WNW,292,3.0,20.0,35,0.00,,,0.00,Weather View 32 v70,2013-03-21 23:15:00,
2013-03-21 19:20:00,31.0,6.5,29.00,NNW,337,3.0,20.0,35,0.00,,,0.00,Weather View 32 v70,2013-03-21 23:20:00,
2013-03-21 19:25:00,31.0,6.5,29.00,NNW,337,6.0,20.0,35,0.00,,,0.00,Weather View 32 v70,2013-03-21 23:25:00,
2013-03-21 19:30:00,30.0,5.6,29.00,WNW,292,3.0,16.0,35,0.00,,,0.00,Weather View 32 v70,2013-03-21 23:30:00,
2013-03-21 19:35:00,30.0,5.6,29.00,WNW,292,1.0,16.0,35,0.00,,,0.00,Weather View 32 v70,2013-03-21 23:35:00,
2013-03-21 19:40:00,30.0,6.3,29.00,NNW,337,0.0,16.0,36,0.00,,,0.00,Weather View 32 v70,2013-03-21 23:40:00,
2013-03-21 19:45:00,30.0,6.9,29.00,NW,315,4.0,16.0,37,0.00,,,0.00,Weather View 32 v70,2013-03-21 23:45:00,
2013-03-21 19:50:00,30.0,6.9,29.00,NNW,337,2.0,16.0,37,0.00,,,0.00,Weather View 32 v70,2013-03-21 23:50:00,
2013-03-21 19:55:00,30.0,6.9,29.01,NNW,337,3.0,16.0,37,0.00,,,0.00,Weather View 32 v70,2013-03-21 23:55:00,
2013-03-21 20:00:00,30.0,6.9,29.01,NW,315,3.0,14.0,37,0.00,,,0.00,Weather View 32 v70,2013-03-22 00:00:00,
2013-03-21 20:05:00,30.0,6.9,29.01,WNW,292,5.0,14.0,37,0.00,,,0.00,Weather View 32 v70,2013-03-22 00:05:00,
2013-03-21 20:10:00,30.0,7.4,29.00,NNW,337,0.0,14.0,38,0.00,,,0.00,Weather View 32 v70,2013-03-22 00:10:00,
2013-03-21 20:15:00,29.0,6.6,29.01,NW,315,1.0,14.0,38,0.00,,,0.00,Weather View 32 v70,2013-03-22 00:15:00,
2013-03-21 20:20:00,29.0,6.6,29.01,NW,315,2.0,14.0,38,0.00,,,0.00,Weather View 32 v70,2013-03-22 00:20:00,
2013-03-21 20:25:00,29.0,7.1,29.01,NW,315,7.0,14.0,39,0.00,,,0.00,Weather View 32 v70,2013-03-22 00:25:00,
2013-03-21 20:30:00,29.0,7.1,29.02,NNW,337,2.0,11.0,39,0.00,,,0.00,Weather View 32 v70,2013-03-22 00:30:00,
2013-03-21 20:35:00,29.0,7.1,29.02,North,360,2.0,13.0,39,0.00,,,0.00,Weather View 32 v70,2013-03-22 00:35:00,
2013-03-21 20:40:00,29.0,7.1,29.02,North,360,6.0,13.0,39,0.00,,,0.00,Weather View 32 v70,2013-03-22 00:40:00,
2013-03-21 20:45:00,29.0,6.6,29.02,NW,315,5.0,13.0,38,0.00,,,0.00,Weather View 32 v70,2013-03-22 00:45:00,
2013-03-21 20:50:00,29.0,7.1,29.02,NNW,337,9.0,13.0,39,0.00,,,0.00,Weather View 32 v70,2013-03-22 00:50:00,
2013-03-21 20:55:00,29.0,7.7,29.02,WNW,292,3.0,13.0,40,0.00,,,0.00,Weather View 32 v70,2013-03-22 00:55:00,
2013-03-21 21:00:00,29.0,7.7,29.02,NNW,337,2.0,13.0,40,0.00,,,0.00,Weather View 32 v70,2013-03-22 01:00:00,
2013-03-21 21:05:00,28.0,6.8,29.03,NW,315,2.0,13.0,40,0.00,,,0.00,Weather View 32 v70,2013-03-22 01:05:00,
2013-03-21 21:10:00,28.0,6.8,29.03,NNW,337,1.0,13.0,40,0.00,,,0.00,Weather View 32 v70,2013-03-22 01:10:00,
2013-03-21 21:20:00,28.0,7.9,29.03,NNW,337,2.0,13.0,42,0.00,,,0.00,Weather View 32 v70,2013-03-22 01:20:00,
2013-03-21 21:25:00,28.0,7.3,29.03,NW,315,1.0,13.0,41,0.00,,,0.00,Weather View 32 v70,2013-03-22 01:25:00,
2013-03-21 21:30:00,28.0,6.8,29.03,NW,315,2.0,13.0,40,0.00,,,0.00,Weather View 32 v70,2013-03-22 01:30:00,
2013-03-21 21:35:00,28.0,6.8,29.03,NW,315,0.0,10.0,40,0.00,,,0.00,Weather View 32 v70,2013-03-22 01:35:00,
2013-03-21 21:40:00,28.0,6.8,29.04,WNW,292,4.0,10.0,40,0.00,,,0.00,Weather View 32 v70,2013-03-22 01:40:00,
2013-03-21 21:45:00,28.0,6.8,29.04,NNW,337,6.0,10.0,40,0.00,,,0.00,Weather View 32 v70,2013-03-22 01:45:00,
2013-03-21 21:50:00,28.0,7.3,29.04,North,360,6.0,10.0,41,0.00,,,0.00,Weather View 32 v70,2013-03-22 01:50:00,
2013-03-21 21:55:00,28.0,7.3,29.04,NNW,337,1.0,10.0,41,0.00,,,0.00,Weather View 32 v70,2013-03-22 01:55:00,
2013-03-21 22:00:00,28.0,7.3,29.04,WSW,247,0.0,10.0,41,0.00,,,0.00,Weather View 32 v70,2013-03-22 02:00:00,
2013-03-21 22:05:00,28.0,7.9,29.04,NW,315,1.0,10.0,42,0.00,,,0.00,Weather View 32 v70,2013-03-22 02:05:00,
2013-03-21 22:10:00,28.0,7.3,29.04,NNW,337,2.0,10.0,41,0.00,,,0.00,Weather View 32 v70,2013-03-22 02:10:00,
2013-03-21 22:15:00,28.0,7.9,29.04,NNW,337,0.0,10.0,42,0.00,,,0.00,Weather View 32 v70,2013-03-22 02:15:00,
2013-03-21 22:20:00,28.0,7.9,29.04,NW,315,0.0,10.0,42,0.00,,,0.00,Weather View 32 v70,2013-03-22 02:20:00,
2013-03-21 22:25:00,28.0,7.9,29.04,WNW,292,3.0,10.0,42,0.00,,,0.00,Weather View 32 v70,2013-03-22 02:25:00,
2013-03-21 22:30:00,28.0,7.9,29.04,WNW,292,6.0,10.0,42,0.00,,,0.00,Weather View 32 v70,2013-03-22 02:30:00,
2013-03-21 22:35:00,28.0,7.9,29.04,NW,315,1.0,10.0,42,0.00,,,0.00,Weather View 32 v70,2013-03-22 02:35:00,
2013-03-21 22:40:00,28.0,7.9,29.04,WNW,292,3.0,10.0,42,0.00,,,0.00,Weather View 32 v70,2013-03-22 02:40:00,
2013-03-21 22:45:00,28.0,7.9,29.04,WNW,292,0.0,8.0,42,0.00,,,0.00,Weather View 32 v70,2013-03-22 02:45:00,
2013-03-21 22:50:00,28.0,8.4,29.04,WNW,292,2.0,8.0,43,0.00,,,0.00,Weather View 32 v70,2013-03-22 02:50:00,
2013-03-21 22:55:00,28.0,7.9,29.04,WNW,292,1.0,8.0,42,0.00,,,0.00,Weather View 32 v70,2013-03-22 02:55:00,
2013-03-21 23:00:00,28.0,7.9,29.04,WNW,292,3.0,8.0,42,0.00,,,0.00,Weather View 32 v70,2013-03-22 03:00:00,
2013-03-21 23:05:00,28.0,7.9,29.04,West,270,1.0,8.0,42,0.00,,,0.00,Weather View 32 v70,2013-03-22 03:05:00,
2013-03-21 23:10:00,27.0,7.5,29.04,NW,315,0.0,8.0,43,0.00,,,0.00,Weather View 32 v70,2013-03-22 03:10:00,
2013-03-21 23:15:00,27.0,7.5,29.04,West,270,1.0,8.0,43,0.00,,,0.00,Weather View 32 v70,2013-03-22 03:15:00,
2013-03-21 23:20:00,27.0,7.5,29.04,WNW,292,1.0,8.0,43,0.00,,,0.00,Weather View 32 v70,2013-03-22 03:20:00,
2013-03-21 23:25:00,27.0,7.5,29.04,WNW,292,0.0,8.0,43,0.00,,,0.00,Weather View 32 v70,2013-03-22 03:25:00,
2013-03-21 23:30:00,27.0,7.5,29.04,NW,315,0.0,8.0,43,0.00,,,0.00,Weather View 32 v70,2013-03-22 03:30:00,
2013-03-21 23:35:00,27.0,7.5,29.04,NW,315,1.0,8.0,43,0.00,,,0.00,Weather View 32 v70,2013-03-22 03:35:00,
2013-03-21 23:40:00,27.0,7.5,29.04,WNW,292,1.0,8.0,43,0.00,,,0.00,Weather View 32 v70,2013-03-22 03:40:00,
2013-03-21 23:45:00,27.0,7.5,29.04,WNW,292,0.0,8.0,43,0.00,,,0.00,Weather View 32 v70,2013-03-22 03:45:00,
2013-03-21 23:50:00,27.0,8.0,29.05,WNW,292,0.0,8.0,44,0.00,,,0.00,Weather View 32 v70,2013-03-22 03:50:00,
2013-03-21 23:55:00,27.0,8.5,29.04,NNW,337,0.0,8.0,45,0.00,,,0.00,Weather View 32 v70,2013-03-22 03:55:00,